When you browse on this site, cookies collect data to enhance your experience and personalize the content and advertising you see.
Visit our Privacy Policy to learn more. By continuing to use the site, you agree to this use of cookies and data.
  • In Slovakia
  • List of Countries
  • For 7 days
  • Water Temperature
  • Weather Map
  • Weather Widgets
  • user-avatar
    Login

    Hourly Weather Megri

    Today, 19 August, Monday

    Time Temperature Precipitation Wind Pressure Humidity
    00:00 +19°C° 0 mm 3 mps 623 mmHg 38%
    01:00 +19°C° 0 mm 3 mps 623 mmHg 38%
    02:00 +19°C° 0 mm 3 mps 623 mmHg 39%
    03:00 +19°C° 0 mm 3 mps 623 mmHg 40%
    04:00 +19°C° 0 mm 3 mps 623 mmHg 39%
    05:00 +19°C° 0 mm 3 mps 624 mmHg 39%
    06:00 +19°C° 0 mm 3 mps 624 mmHg 38%
    07:00 +22°C° 0 mm 3 mps 625 mmHg 32%
    08:00 +25°C° 0 mm 3 mps 626 mmHg 27%
    09:00 +27°C° 0 mm 3 mps 627 mmHg 21%
    10:00 +29°C° 0 mm 3 mps 627 mmHg 19%
    11:00 +30°C° 0 mm 4 mps 627 mmHg 18%
    12:00 +32°C° 0 mm 4 mps 628 mmHg 16%
    13:00 +32°C° 0 mm 5 mps 628 mmHg 16%
    14:00 +33°C° 0 mm 5 mps 627 mmHg 15%
    15:00 +33°C° 0 mm 5 mps 627 mmHg 15%
    16:00 +30°C° 0 mm 5 mps 627 mmHg 17%
    17:00 +29°C° 0 mm 5 mps 626 mmHg 20%
    18:00 +27°C° 0 mm 4 mps 626 mmHg 22%
    19:00 +25°C° 0 mm 4 mps 626 mmHg 26%
    20:00 +23°C° 0 mm 4 mps 626 mmHg 29%
    21:00 +21°C° 0 mm 4 mps 626 mmHg 33%
    22:00 +20°C° 0 mm 4 mps 626 mmHg 35%
    23:00 +20°C° 0 mm 4 mps 626 mmHg 37%

    Tomorrow, 20 August, Tuesday

    Time Temperature Precipitation Wind Pressure Humidity
    00:00 +19°C° 0 mm 3 mps 625 mmHg 39%
    01:00 +19°C° 0 mm 3 mps 626 mmHg 39%
    02:00 +18°C° 0 mm 3 mps 626 mmHg 39%
    03:00 +18°C° 0 mm 3 mps 626 mmHg 39%
    04:00 +18°C° 0 mm 3 mps 626 mmHg 36%
    05:00 +18°C° 0 mm 3 mps 626 mmHg 33%
    06:00 +18°C° 0 mm 3 mps 626 mmHg 31%
    07:00 +20°C° 0 mm 3 mps 627 mmHg 24%
    08:00 +24°C° 0 mm 3 mps 628 mmHg 18%
    09:00 +26°C° 0 mm 3 mps 629 mmHg 12%
    10:00 +28°C° 0 mm 4 mps 629 mmHg 11%
    11:00 +29°C° 0 mm 4 mps 629 mmHg 10%
    12:00 +32°C° 0 mm 4 mps 629 mmHg 9%
    13:00 +32°C° 0 mm 4 mps 629 mmHg 9%
    14:00 +32°C° 0 mm 5 mps 629 mmHg 10%
    15:00 +33°C° 0 mm 5 mps 628 mmHg 10%
    16:00 +30°C° 0 mm 5 mps 628 mmHg 11%
    17:00 +29°C° 0 mm 4 mps 627 mmHg 13%
    18:00 +27°C° 0 mm 4 mps 627 mmHg 15%
    19:00 +25°C° 0 mm 4 mps 626 mmHg 18%
    20:00 +22°C° 0 mm 4 mps 626 mmHg 21%
    21:00 +20°C° 0 mm 4 mps 626 mmHg 25%
    22:00 +20°C° 0 mm 3 mps 626 mmHg 26%
    23:00 +19°C° 0 mm 3 mps 625 mmHg 28%

    Day after tomorrow, 21 August, Wednesday

    Time Temperature Precipitation Wind Pressure Humidity
    00:00 +18°C° 0 mm 3 mps 625 mmHg 30%
    01:00 +18°C° 0 mm 3 mps 625 mmHg 31%
    02:00 +18°C° 0 mm 3 mps 625 mmHg 31%
    03:00 +17°C° 0 mm 3 mps 625 mmHg 32%
    04:00 +18°C° 0 mm 3 mps 625 mmHg 32%
    05:00 +18°C° 0 mm 3 mps 625 mmHg 31%
    06:00 +18°C° 0 mm 3 mps 625 mmHg 31%
    07:00 +20°C° 0 mm 3 mps 626 mmHg 26%
    08:00 +24°C° 0 mm 3 mps 627 mmHg 21%
    09:00 +26°C° 0 mm 3 mps 628 mmHg 16%
    10:00 +28°C° 0 mm 3 mps 628 mmHg 14%
    11:00 +29°C° 0 mm 3 mps 628 mmHg 13%
    12:00 +31°C° 0 mm 3 mps 628 mmHg 11%
    13:00 +32°C° 0 mm 4 mps 628 mmHg 11%
    14:00 +32°C° 0 mm 4 mps 627 mmHg 11%
    15:00 +33°C° 0 mm 4 mps 627 mmHg 10%
    16:00 +30°C° 0 mm 4 mps 626 mmHg 12%
    17:00 +29°C° 0 mm 4 mps 626 mmHg 13%
    18:00 +28°C° 0 mm 4 mps 625 mmHg 14%
    19:00 +26°C° 0 mm 4 mps 625 mmHg 17%
    20:00 +23°C° 0 mm 4 mps 624 mmHg 19%
    21:00 +21°C° 0 mm 4 mps 624 mmHg 22%
    22:00 +20°C° 0 mm 3 mps 624 mmHg 24%
    23:00 +19°C° 0 mm 3 mps 624 mmHg 27%

    22 August, Thursday

    Time Temperature Precipitation Wind Pressure Humidity
    00:00 +19°C° 0 mm 3 mps 624 mmHg 29%
    01:00 +19°C° 0 mm 3 mps 623 mmHg 30%
    02:00 +18°C° 0 mm 3 mps 623 mmHg 31%
    03:00 +18°C° 0 mm 3 mps 623 mmHg 31%
    04:00 +18°C° 0 mm 3 mps 623 mmHg 30%
    05:00 +18°C° 0 mm 3 mps 623 mmHg 29%
    06:00 +18°C° 0 mm 3 mps 623 mmHg 28%
    07:00 +21°C° 0 mm 3 mps 624 mmHg 24%
    08:00 +25°C° 0 mm 3 mps 625 mmHg 19%
    09:00 +27°C° 0 mm 3 mps 626 mmHg 15%
    10:00 +29°C° 0 mm 3 mps 626 mmHg 14%
    11:00 +30°C° 0 mm 3 mps 626 mmHg 13%
    12:00 +33°C° 0 mm 4 mps 626 mmHg 12%
    13:00 +33°C° 0 mm 4 mps 625 mmHg 12%
    14:00 +33°C° 0 mm 4 mps 625 mmHg 12%
    15:00 +33°C° 0 mm 4 mps 624 mmHg 12%
    16:00 +30°C° 0 mm 4 mps 624 mmHg 14%
    17:00 +28°C° 0 mm 4 mps 623 mmHg 17%
    18:00 +27°C° 0 mm 5 mps 622 mmHg 19%
    19:00 +25°C° 0 mm 4 mps 622 mmHg 21%
    20:00 +22°C° 0 mm 4 mps 622 mmHg 23%
    21:00 +20°C° 0 mm 4 mps 622 mmHg 25%
    22:00 +20°C° 0 mm 4 mps 622 mmHg 26%
    23:00 +19°C° 0 mm 3 mps 622 mmHg 27%

    23 August, Friday

    Time Temperature Precipitation Wind Pressure Humidity
    00:00 +18°C° 0 mm 3 mps 622 mmHg 28%
    01:00 +18°C° 0 mm 3 mps 621 mmHg 28%
    02:00 +18°C° 0 mm 3 mps 621 mmHg 28%
    03:00 +17°C° 0 mm 2 mps 621 mmHg 28%
    04:00 +17°C° 0 mm 2 mps 621 mmHg 28%
    05:00 +17°C° 0 mm 2 mps 622 mmHg 28%
    06:00 +18°C° 0 mm 2 mps 622 mmHg 28%
    07:00 +20°C° 0 mm 2 mps 623 mmHg 25%
    08:00 +22°C° 0 mm 3 mps 624 mmHg 22%
    09:00 +26°C° 0 mm 3 mps 625 mmHg 19%
    10:00 +27°C° 0 mm 3 mps 625 mmHg 18%
    11:00 +29°C° 0 mm 3 mps 625 mmHg 17%
    12:00 +30°C° 0 mm 3 mps 625 mmHg 15%
    13:00 +32°C° 0 mm 4 mps 625 mmHg 15%
    14:00 +32°C° 0 mm 4 mps 625 mmHg 15%
    15:00 +32°C° 0 mm 4 mps 624 mmHg 15%
    16:00 +30°C° 0 mm 4 mps 624 mmHg 18%
    17:00 +28°C° 0 mm 4 mps 623 mmHg 22%
    18:00 +26°C° 0 mm 5 mps 623 mmHg 25%
    19:00 +23°C° 0 mm 5 mps 623 mmHg 29%
    20:00 +21°C° 0 mm 4 mps 623 mmHg 33%
    21:00 +20°C° 0 mm 4 mps 623 mmHg 36%
    22:00 +19°C° 0 mm 4 mps 622 mmHg 38%
    23:00 +18°C° 0 mm 4 mps 622 mmHg 39%

    24 August, Saturday

    Time Temperature Precipitation Wind Pressure Humidity
    00:00 +18°C° 0 mm 3 mps 622 mmHg 40%
    01:00 +18°C° 0 mm 3 mps 622 mmHg 41%
    02:00 +17°C° 0 mm 3 mps 622 mmHg 41%
    03:00 +17°C° 0 mm 2 mps 622 mmHg 41%
    04:00 +17°C° 0 mm 2 mps 622 mmHg 41%
    05:00 +17°C° 0 mm 2 mps 622 mmHg 40%
    06:00 +17°C° 0 mm 2 mps 623 mmHg 40%
    07:00 +20°C° 0 mm 2 mps 624 mmHg 35%
    08:00 +23°C° 0 mm 2 mps 625 mmHg 30%
    09:00 +26°C° 0 mm 2 mps 625 mmHg 24%
    10:00 +28°C° 0 mm 2 mps 626 mmHg 22%
    11:00 +29°C° 0 mm 2 mps 626 mmHg 19%
    12:00 +31°C° 0 mm 3 mps 626 mmHg 16%
    13:00 +31°C° 0 mm 3 mps 626 mmHg 16%
    14:00 +31°C° 0 mm 3 mps 626 mmHg 15%
    15:00 +33°C° 0 mm 3 mps 625 mmHg 14%
    16:00 +30°C° 0 mm 3 mps 625 mmHg 19%
    17:00 +29°C° 0 mm 3 mps 625 mmHg 23%
    18:00 +27°C° 0 mm 3 mps 624 mmHg 28%
    19:00 +25°C° 0 mm 3 mps 624 mmHg 33%
    20:00 +22°C° 0 mm 3 mps 624 mmHg 37%
    21:00 +20°C° 0 mm 3 mps 623 mmHg 42%
    22:00 +20°C° 0 mm 3 mps 623 mmHg 42%
    23:00 +19°C° 0 mm 3 mps 623 mmHg 43%
    Show more